DW9005 Weather Reports


time (UTC)temp
C
wind
direction
speed
KPH
gust
KPH
rain 1hr
cm
rain 24hr
cm
rain mn
cm
humidity
%
barometer
mb
20260508133016 13 337 0.0 0.0 0.00 0.00 0.00 90 1018.4
20260508131512 12 319 0.0 0.0 0.00 0.00 0.00 91 1018.3
20260508130057 12 341 0.0 0.0 0.00 0.00 0.00 92 1018.3
20260508124552 12 56 0.0 0.0 0.00 0.00 0.00 93 1018.2
20260508123035 11 17 0.0 0.0 0.00 0.00 0.00 93 1018.2
20260508121553 11 355 0.0 0.0 0.00 0.00 0.00 94 1018.0
20260508120015 -17 0.0 0.0 0.00 0.00 0.00 1017.9
20260508114509 -17 0.0 0.0 0.00 0.00 0.00 1017.8
20260508113049 -17 0.0 0.0 0.00 0.00 0.00 1017.4
20260508111544 -17 0.0 0.0 0.00 0.00 0.00 1017.2
20260508110023 -17 0.0 0.0 0.00 0.00 0.00 1017.2
20260508104523 -17 0.0 0.0 0.00 0.00 0.00 1016.9
20260508103012 -17 0.0 0.0 0.00 0.00 0.00 1016.7
20260508101600 -17 0.0 0.0 0.00 0.00 0.00 1016.6
20260508100056 10 44 0.0 0.0 0.00 0.00 0.00 93 1016.3
20260508094608 10 44 0.0 0.0 0.00 0.00 0.00 93 1015.7
20260508093055 11 44 0.0 0.0 0.00 0.00 0.00 93 1015.5
20260508091556 11 43 0.0 0.0 0.00 0.00 0.00 93 1015.3
20260508090053 11 43 0.0 0.0 0.00 0.00 0.00 93 1015.2
20260508084553 11 43 0.0 0.0 0.00 0.00 0.00 93 1015.1
20260508083113 11 45 0.0 0.0 0.00 0.00 0.00 93 1015.2
20260508081532 11 45 0.0 0.0 0.00 0.00 0.00 92 1015.2
20260508080013 11 42 0.0 0.0 0.00 0.00 0.00 93 1015.2
20260508074512 11 32 0.0 0.0 0.00 0.00 0.00 92 1015.4
20260508073101 11 32 0.0 0.0 0.00 0.00 0.00 92 1015.2
20260508071559 12 32 0.0 0.0 0.00 0.00 0.00 92 1015.3
20260508070059 12 32 0.0 0.0 0.00 0.00 0.00 92 1015.3
20260508064609 12 32 0.0 0.0 0.00 0.00 0.00 92 1015.5
20260508063056 12 32 0.0 0.0 0.00 0.00 0.00 92 1015.6
20260508061557 12 31 0.0 0.0 0.00 0.00 0.00 92 1015.3
20260508060054 12 31 0.0 0.0 0.00 0.00 0.00 92 1015.7
20260508054555 12 31 0.0 0.0 0.00 0.00 0.00 92 1015.9
20260508053051 12 31 0.0 0.0 0.00 0.00 0.00 92 1016.0
20260508051532 12 31 0.0 0.0 0.00 0.00 0.00 92 1016.1
20260508050034 12 30 0.0 0.0 0.00 0.00 0.00 92 1016.0
20260508044514 12 33 0.0 0.0 0.00 0.00 0.00 92 1016.1
20260508043012 13 33 0.0 0.0 0.00 0.00 0.00 92 1016.3
20260508041603 13 33 0.0 0.0 0.00 0.00 0.00 91 1016.0
20260508040106 13 33 0.0 0.0 0.00 0.00 0.00 91 1016.1
20260508034556 13 33 0.0 0.0 0.00 0.00 0.00 91 1016.1
20260508033055 13 33 0.0 0.0 0.00 0.00 0.00 91 1016.0
20260508031550 14 33 0.0 0.0 0.00 0.00 0.00 91 1015.9
20260508030105 14 33 0.0 0.0 0.00 0.00 0.00 90 1015.8
20260508024555 14 33 0.0 0.0 0.00 0.00 0.00 90 1015.6
20260508023044 15 33 0.0 0.0 0.00 0.00 0.00 89 1015.8
20260508021524 15 33 0.0 0.0 0.00 0.00 0.00 88 1015.5
20260508020022 15 33 0.0 0.0 0.00 0.00 0.00 87 1015.4
20260508014504 16 33 0.0 0.0 0.00 0.00 0.00 85 1015.2
20260508013004 16 33 0.0 0.0 0.00 0.00 0.00 84 1015.2
20260508011603 17 355 0.0 0.0 0.00 0.00 0.00 80 1015.3
20260508010104 17 355 0.0 0.0 0.00 0.00 0.00 79 1015.0
20260508004558 17 317 0.0 0.0 0.00 0.00 0.00 80 1014.8
20260508003103 18 317 0.0 0.0 0.00 0.00 0.00 77 1014.7
20260508001549 18 309 0.0 0.0 0.00 0.00 0.00 74 1014.7
20260508000048 19 338 0.0 0.0 0.00 0.00 0.00 72 1014.4
20260507234548 19 287 0.0 0.0 0.00 0.00 0.00 71 1014.3
20260507233048 20 355 0.0 0.0 0.00 0.00 0.00 71 1014.1
20260507231529 20 321 0.0 0.0 0.00 0.00 0.00 66 1014.1
20260507230029 20 348 0.0 0.0 0.00 0.00 0.00 68 1013.9
20260507224515 21 290 0.0 0.0 0.00 0.00 0.00 68 1014.0
20260507223011 21 294 0.0 0.0 0.00 0.00 0.00 67 1013.9
20260507221552 21 344 0.0 0.0 0.00 0.00 0.00 67 1013.7
20260507220054 21 344 0.0 0.0 0.00 0.00 0.00 69 1013.5
20260507214535 21 339 0.0 0.0 0.00 0.00 0.00 71 1013.5
20260507213035 21 5 0.0 0.0 0.00 0.00 0.00 73 1013.5
20260507211516 21 88 0.0 0.0 0.00 0.00 0.00 71 1013.3
20260507210016 21 40 0.0 0.0 0.00 0.00 0.00 71 1013.3
20260507204611 21 316 0.0 0.0 0.00 0.00 0.00 70 1013.3
20260507203055 21 296 0.0 0.0 0.00 0.00 0.00 72 1013.5
20260507201540 21 313 0.0 0.0 0.00 0.00 0.00 71 1013.5
20260507200037 20 316 0.0 0.0 0.00 0.00 0.00 77 1013.5
20260507194515 20 5 0.0 0.0 0.00 0.00 0.00 75 1013.6
20260507193013 20 254 0.0 0.0 0.00 0.00 0.00 76 1013.7
20260507191552 19 262 0.0 0.0 0.00 0.00 0.00 79 1013.6
20260507190101 18 298 0.0 0.0 0.00 0.00 0.00 80 1013.6
20260507184538 18 301 0.0 0.0 0.00 0.00 0.00 81 1014.1
20260507183037 18 327 0.0 0.0 0.00 0.00 0.00 82 1014.2
20260507181513 17 259 0.0 0.0 0.00 0.00 0.00 84 1014.5
20260507180013 17 318 0.0 0.0 0.00 0.00 0.00 85 1014.5
20260507174554 17 257 0.0 0.0 0.00 0.00 0.00 87 1014.7
20260507173056 17 296 0.0 0.0 0.00 0.00 0.00 89 1014.7
20260507171542 16 259 0.0 0.0 0.00 0.00 0.00 90 1014.9
20260507170040 16 273 0.0 0.0 0.00 0.00 0.00 91 1015.0
20260507164539 15 330 0.0 0.0 0.00 0.00 0.00 91 1014.9
20260507163038 16 325 0.0 0.0 0.00 0.00 0.00 91 1014.7
20260507161539 15 327 0.0 0.0 0.00 0.00 0.00 91 1014.5
20260507160038 15 315 0.0 0.0 0.00 0.00 0.00 91 1014.2
20260507154538 15 308 0.0 0.0 0.00 0.00 0.00 91 1014.4
20260507153035 16 274 0.0 0.0 0.00 0.00 0.00 91 1014.1
20260507151516 16 213 0.0 0.0 0.00 0.00 0.00 90 1014.0
20260507150013 17 297 0.0 0.0 0.00 0.00 0.00 90 1013.7
20260507144557 17 302 0.0 0.0 0.00 0.00 0.00 91 1013.5
20260507143052 17 327 0.0 0.0 0.00 0.00 0.00 91 1013.4
20260507141534 17 257 0.0 0.0 0.00 0.00 0.00 92 1013.6
20260507140041 16 325 0.0 0.0 0.00 0.00 0.00 92 1013.1
20260507134519 16 16 0.0 0.0 0.00 0.00 0.00 92 1013.3